EXP933 RPLL-RPVM

Flight info

Callsign EXP933
Flight time N/A
Altitude 33000
Route IPATA2R IPATA W25 BATAY BATAY3P
Aircraft A20N/M-SDE2E3FGHIRWXY/LB1

Departure

Time N/A
Airport Ninoy Aquino International Airport (RPLL)

Arrival

Time 2026-05-05 15:19
Airport Mactan Cebu International Airport (RPVM)
Time Latitude Longitude Altitude Speed Heading
2026-05-05 15:06 10.79102 123.74826 15879 ft 356 kts 197°
2026-05-05 15:06 10.76714 123.74161 15879 ft 356 kts 197°
2026-05-05 15:06 10.74321 123.73491 15876 ft 355 kts 197°
2026-05-05 15:07 10.71970 123.72834 15565 ft 354 kts 197°
2026-05-05 15:07 10.69565 123.72164 14710 ft 363 kts 197°
2026-05-05 15:07 10.67135 123.71487 13992 ft 366 kts 197°
2026-05-05 15:07 10.64720 123.70815 13490 ft 364 kts 197°
2026-05-05 15:08 10.62283 123.70136 12985 ft 361 kts 197°
2026-05-05 15:08 10.59904 123.69473 12473 ft 359 kts 197°
2026-05-05 15:08 10.57494 123.68801 11985 ft 355 kts 197°
2026-05-05 15:08 10.55158 123.68150 11626 ft 349 kts 197°
2026-05-05 15:09 10.52862 123.67510 11274 ft 343 kts 197°
2026-05-05 15:09 10.50558 123.66869 10903 ft 338 kts 197°
2026-05-05 15:09 10.48333 123.66251 10541 ft 333 kts 197°
2026-05-05 15:09 10.46129 123.65638 10184 ft 328 kts 197°
2026-05-05 15:10 10.43935 123.65028 9832 ft 323 kts 197°
2026-05-05 15:10 10.41807 123.64436 9485 ft 316 kts 197°
2026-05-05 15:10 10.39723 123.63857 8912 ft 306 kts 197°
2026-05-05 15:10 10.37717 123.63300 8293 ft 299 kts 197°
2026-05-05 15:11 10.35717 123.62861 7656 ft 295 kts 182°
2026-05-05 15:11 10.33850 123.63244 7000 ft 296 kts 152°
2026-05-05 15:11 10.32246 123.64530 6615 ft 294 kts 134°
2026-05-05 15:11 10.30824 123.66023 6272 ft 291 kts 133°
2026-05-05 15:12 10.29464 123.67475 5958 ft 288 kts 133°
2026-05-05 15:12 10.28073 123.68938 5647 ft 284 kts 133°
2026-05-05 15:12 10.26710 123.70351 5347 ft 281 kts 133°
2026-05-05 15:12 10.25352 123.71743 5052 ft 278 kts 134°
2026-05-05 15:13 10.24003 123.73119 4761 ft 275 kts 134°
2026-05-05 15:13 10.22657 123.74488 4472 ft 272 kts 134°
2026-05-05 15:13 10.21322 123.75844 4186 ft 270 kts 134°
2026-05-05 15:13 10.19998 123.77190 3900 ft 267 kts 133°
2026-05-05 15:14 10.18679 123.78530 3616 ft 269 kts 133°
2026-05-05 15:14 10.17368 123.79864 3332 ft 266 kts 132°
2026-05-05 15:14 10.16378 123.81386 3103 ft 254 kts 102°
2026-05-05 15:14 10.16367 123.83079 3071 ft 233 kts 70°
2026-05-05 15:15 10.17139 123.84434 3037 ft 215 kts 44°
2026-05-05 15:15 10.18176 123.85467 3026 ft 202 kts 41°
2026-05-05 15:15 10.19158 123.86396 2993 ft 185 kts 41°
2026-05-05 15:15 10.20055 123.87259 2828 ft 174 kts 41°
2026-05-05 15:16 10.20919 123.88103 2746 ft 169 kts 42°
2026-05-05 15:16 10.21734 123.88936 2509 ft 168 kts 44°
2026-05-05 15:16 10.22545 123.89786 2198 ft 166 kts 44°
2026-05-05 15:16 10.23339 123.90614 1963 ft 161 kts 43°
2026-05-05 15:17 10.24107 123.91386 1712 ft 148 kts 42°
2026-05-05 15:17 10.24843 123.92069 1412 ft 142 kts 41°
2026-05-05 15:17 10.25558 123.92754 1176 ft 142 kts 41°
2026-05-05 15:17 10.26276 123.93458 982 ft 142 kts 44°
2026-05-05 15:18 10.26967 123.94158 788 ft 141 kts 43°
2026-05-05 15:18 10.27666 123.94853 595 ft 141 kts 43°
2026-05-05 15:18 10.28373 123.95546 411 ft 140 kts 43°
2026-05-05 15:18 10.29069 123.96240 227 ft 140 kts 43°
2026-05-05 15:19 10.29759 123.96935 58 ft 139 kts 43°
2026-05-05 15:19 10.30416 123.97594 25 ft 118 kts 44°
2026-05-05 15:19 10.30876 123.98053 31 ft 68 kts 46°
2026-05-05 15:19 10.31105 123.98267 30 ft 28 kts 32°
2026-05-05 15:20 10.31271 123.98344 30 ft 21 kts 11°
2026-05-05 15:20 10.31384 123.98328 32 ft 14 kts 324°
2026-05-05 15:20 10.31452 123.98259 33 ft 13 kts 316°
2026-05-05 15:20 10.31516 123.98196 35 ft 12 kts 315°
2026-05-05 15:21 10.31563 123.98145 36 ft 6 kts 299°
2026-05-05 15:21 10.31560 123.98105 37 ft 6 kts 239°
2026-05-05 15:21 10.31549 123.98074 38 ft 3 kts 290°
2026-05-05 15:21 10.31563 123.98058 39 ft 2 kts 313°
2026-05-05 15:22 10.31573 123.98048 39 ft 1 kts 314°
2026-05-05 15:22 10.31578 123.98042 40 ft 0 kts 314°
2026-05-05 15:22 10.31582 123.98038 40 ft 1 kts 315°
2026-05-05 15:22 10.31583 123.98037 40 ft 0 kts 315°
2026-05-05 15:23 10.31588 123.98032 40 ft 2 kts 315°
2026-05-05 15:23 10.31600 123.98020 41 ft 2 kts 315°